Flag for Germany Weather past 2 weeks in Meppen, Lower Saxony, Germany

Now
72 °F

Mild.


Feels Like: 74 °F
Forecast: 62 / 75 °F
Wind: 2 mph from West

Location: Meppen

Current Time: Jul 26, 2014 at 5:37:25 PM

Latest Report: Jul 26, 2014 at 4:00 PM


Visibility: 5 mi

Pressure: 29.92 "Hg

Humidity: 72%

Dew point: 63 °F

Location of MeppenLocation

Historic Weather in Meppen — Graph

°F

Meppen temperature yesterday

Maximum temperature yesterday: 67 °F (at 6:00 PM)
Minimum temperature yesterday: 62 °F (at 4:00 AM)
Average temperature yesterday: 64 °F

Past Weeks' High & Low Weather Summary

 TemperatureHumidityPressure
High93 °F (Jul 19, 4:00 PM)95% (Jul 16, 7:00 AM)30.20 "Hg (Jul 16, 7:00 AM)
Low53 °F (Jul 16, 6:00 AM)22% (Jul 19, 3:00 PM)29.76 "Hg (Jul 20, 6:00 PM)
Average70 °F69%30.01 "Hg
* Reported Jul 11 4:00 PM — Jul 26 4:00 PM, Meppen, Weather by CustomWeather, © 2014

Note: Actual official high and low records may vary slightly from our data, if they occured in-between our weather recording intervals... More about our weather records

Advertising

Meppen weather history for previous 24 hours

 ConditionsComfort  
Time TempWeatherWind HumidityBarometerVisibility
4:00 PM
Jul 26
72 °FMild.2 mph72%29.92 "Hg5 mi
3:00 PM72 °FMild.3 mph69%29.93 "Hg6 mi
1:00 PM69 °FMild.2 mph81%29.94 "Hg5 mi
12:00 PM66 °FMild.2 mph88%29.94 "Hg4 mi
10:00 AM64 °FMild.2 mph91%29.93 "Hg3 mi
9:00 AM64 °FMild.2 mph92%29.93 "Hg3 mi
8:00 AM64 °FMild.2 mph93%29.92 "Hg4 mi
7:00 AM63 °FMild.1 mph93%29.92 "Hg4 mi
6:00 AM63 °FMild.1 mph93%29.91 "Hg2 mi
4:00 AM64 °FMild.2 mph95%29.92 "Hg2 mi
3:00 AM63 °FMild.1 mph94%29.93 "Hg1 mi
2:00 AMN/APassing clouds.2 mphN/AN/A8 mi
1:00 AM64 °FMild.N/A93%29.95 "Hg1 mi
12:00 AM64 °FMild.2 mph92%29.94 "Hg2 mi
10:00 PM
Jul 25
66 °FMild.2 mph91%29.97 "Hg3 mi
9:00 PM66 °FMild.2 mph89%29.96 "Hg4 mi
7:00 PM67 °FMild.3 mph84%29.96 "Hg5 mi
6:00 PM67 °FMild.2 mph84%29.96 "Hg5 mi
Weather by CustomWeather, © 2014

See weather overviewHow to use our weather pages